Weather History for KFLG - September, 2014

Change the Weather History Date:

Saturday, September 20, 2014

  Actual Average Record
Temperature  
Mean Temperature 63 °F 56 °F  
Max Temperature 78 °F 72 °F 83 °F (2000)
Min Temperature 47 °F 41 °F 23 °F (1971)
Degree Days  
Heating Degree Days 2 9  
Month to date heating degree days 71 120  
Since 1 July heating degree days 165 208  
Cooling Degree Days 0 0  
Month to date cooling degree days 0 0  
Year to date cooling degree days 109 114  
Growing Degree Days 12 (Base 50)    
Moisture  
Dew Point 51 °F    
Average Humidity 62    
Maximum Humidity 93    
Minimum Humidity 30    
Precipitation  
Precipitation T in 0.08 in 1.52 in (1952)
Month to date precipitation 1.80 1.68  
Year to date precipitation 14.64 15.87  
Snow  
Snow 0.00 in 0.00 in 0.00 in (2002)
Month to date snowfall 0.0 0.0  
Since 1 July snowfall 0.0 0.0  
Snow Depth 0.00 in    
Sea Level Pressure  
Sea Level Pressure 30.09 in    
Wind  
Wind Speed 3 mph (SSW)    
Max Wind Speed 17 mph    
Max Gust Speed 23 mph    
Visibility 10 miles    
Events Rain , Thunderstorm    
T = Trace of Precipitation, MM = Missing Value Source: NWS Daily Summary

Daily Weather History Graph

Daily Weather History Graph

Search for Another Location

Airport or City:

Trip Planner

Search our weather history database for the weather conditions in past years. The results will help you decide how hot, cold, wet, or windy it might be!

Date:

Astronomy

Sep. 20, 2014 Rise Set
Actual Time 6:13 AM MST 6:26 PM MST
Civil Twilight 5:47 AM MST 6:51 PM MST
Nautical Twilight 5:18 AM MST 7:21 PM MST
Astronomical Twilight 4:48 AM MST 7:51 PM MST
Moon 3:01 AM MST (9/20) 4:26 PM MST (9/20)
Length of Visible Light 13h 03m
Length of Day
12h 13m
Waning Crescent, 11% of the Moon is Illuminated
Sep 20
Waning Crescent
Sep 23
New
Oct 1
First Quarter
Oct 8
Full
Oct 15
Last Quarter

Hourly Weather History & Observations

Time (MST) Temp. Dew Point Humidity Pressure Visibility Wind Dir Wind Speed Gust Speed Precip Events Conditions
12:57 AM 51.1 °F 48.9 °F 92% 30.01 in 10.0 mi Calm Calm - N/A   Clear
1:57 AM 50.0 °F 48.0 °F 93% 30.01 in - North - - N/A   Unknown
2:57 AM 50.0 °F 46.9 °F 89% 30.00 in - North - - N/A   Unknown
3:57 AM 48.9 °F 46.0 °F 90% 29.96 in 10.0 mi Calm Calm - N/A   Unknown
4:57 AM 46.9 °F 45.0 °F 93% 29.98 in 10.0 mi Calm Calm - N/A   Unknown
5:57 AM 46.9 °F 45.0 °F 93% 30.01 in 10.0 mi Calm Calm - N/A   Clear
6:57 AM 50.0 °F 46.0 °F 86% 30.04 in 10.0 mi Calm Calm - N/A   Clear
7:57 AM 60.1 °F 52.0 °F 75% 30.01 in 10.0 mi Calm Calm - N/A   Mostly Cloudy
8:57 AM - - N/A% 30.28 in - North - - N/A   Unknown
9:57 AM - - N/A% 30.28 in - North - - N/A   Unknown
10:57 AM - - N/A% 30.28 in - North - - N/A   Unknown
11:57 AM - - N/A% 30.27 in - North - - N/A   Unknown
12:57 PM 78.1 °F 44.1 °F 30% 29.95 in 10.0 mi ESE 8.1 mph 20.7 mph N/A   Clear
1:57 PM 78.1 °F 45.0 °F 31% 29.93 in 10.0 mi East 6.9 mph - N/A   Scattered Clouds
2:49 PM 66.0 °F 57.0 °F 73% 30.23 in 10.0 mi SSW 17.3 mph - 0.00 in Rain , Thunderstorm Light Thunderstorms and Rain
2:57 PM 66.0 °F 55.9 °F 70% 29.97 in 10.0 mi SW 11.5 mph - 0.00 in Rain , Thunderstorm Light Thunderstorms and Rain
3:57 PM 71.1 °F 54.0 °F 55% 29.96 in 10.0 mi SSW 5.8 mph - 0.00 in Thunderstorm Thunderstorm
4:04 PM 71.1 °F 54.0 °F 55% 30.22 in 10.0 mi SSW 4.6 mph - N/A   Mostly Cloudy
4:57 PM 72.0 °F 48.9 °F 44% 29.95 in 10.0 mi SSW 10.4 mph - N/A   Mostly Cloudy
5:57 PM 66.9 °F 54.0 °F 63% 29.98 in 10.0 mi SSW 4.6 mph - N/A   Mostly Cloudy
6:57 PM 63.0 °F 54.0 °F 72% 30.01 in 10.0 mi Calm Calm - N/A   Scattered Clouds
7:57 PM 62.1 °F 53.1 °F 72% 29.98 in 10.0 mi West 3.5 mph - N/A   Partly Cloudy
8:57 PM 63.0 °F 54.0 °F 72% 30.26 in 10.0 mi Calm Calm - N/A   Mostly Cloudy
9:57 PM 61.0 °F 54.0 °F 78% 30.27 in 10.0 mi Calm Calm - N/A   Scattered Clouds
10:57 PM 60.1 °F 55.0 °F 83% 30.28 in 10.0 mi SW 5.8 mph - N/A   Scattered Clouds
11:57 PM 59.0 °F 54.0 °F 83% 30.29 in 10.0 mi SW 3.5 mph - N/A   Mostly Cloudy